Weather History for KVCB - February, 2013

Change the Weather History Date:

Sunday, February 10, 2013

  Actual Average Record
Temperature  
Mean Temperature 46 °F -  
Max Temperature 63 °F 61 °F 76 °F (1988)
Min Temperature 28 °F 40 °F 27 °F (1985)
Degree Days  
Heating Degree Days 20    
Moisture  
Dew Point 29 °F    
Average Humidity 53    
Maximum Humidity 89    
Minimum Humidity 29    
Precipitation  
Precipitation 0.00 in - - ()
Sea Level Pressure  
Sea Level Pressure 30.08 in    
Wind  
Wind Speed 4 mph (North)    
Max Wind Speed 14 mph    
Max Gust Speed 17 mph    
Visibility 10 miles    
Events      
Averages and records for this station are not official NWS values.
T = Trace of Precipitation, MM = Missing Value Source: NWS Daily Summary

Daily Weather History Graph

Daily Weather History Graph

Search for Another Location

Airport or City:

Trip Planner

Search our weather history database for the weather conditions in past years. The results will help you decide how hot, cold, wet, or windy it might be!

Date:

Astronomy

Feb. 10, 2013 Rise Set
Actual Time 7:03 AM PST 5:40 PM PST
Civil Twilight 6:36 AM PST 6:08 PM PST
Nautical Twilight 6:05 AM PST 6:39 PM PST
Astronomical Twilight 5:34 AM PST 7:10 PM PST
Moon 6:57 AM PST (2/10) 6:36 PM PST (2/10)
Length of Visible Light 11h 31m
Length of Day
10h 37m
New Moon, 0% of the Moon is Illuminated
Feb 10
New Moon
Feb 17
First Quarter
Feb 25
Full
Mar 4
Last Quarter
Mar 11
New

Hourly Weather History & Observations

Time (PST) Temp. Windchill Dew Point Humidity Pressure Visibility Wind Dir Wind Speed Gust Speed Precip Events Conditions
12:53 AM 34.0 °F - 28.0 °F 79% 30.10 in 10.0 mi Calm Calm - N/A   Clear
1:53 AM 30.9 °F 27.5 °F 27.0 °F 85% 30.10 in 10.0 mi North 3.5 mph - N/A   Clear
2:53 AM 28.9 °F - 26.1 °F 89% 30.10 in 10.0 mi Calm Calm - N/A   Clear
3:53 AM 32.0 °F - 27.0 °F 82% 30.10 in 10.0 mi Calm Calm - N/A   Clear
4:53 AM 33.1 °F 30.0 °F 28.0 °F 82% 30.11 in 10.0 mi Variable 3.5 mph - N/A   Clear
5:53 AM 30.0 °F - 27.0 °F 88% 30.12 in 10.0 mi Calm Calm - N/A   Clear
6:53 AM 33.1 °F - 28.9 °F 85% 30.13 in 10.0 mi Calm Calm - N/A   Clear
7:53 AM 37.9 °F 33.5 °F 32.0 °F 79% 30.14 in 10.0 mi North 5.8 mph - N/A   Clear
8:53 AM 44.1 °F 42.5 °F 33.1 °F 65% 30.15 in 10.0 mi Variable 3.5 mph - N/A   Clear
9:53 AM 46.0 °F 44.8 °F 34.0 °F 63% 30.15 in 10.0 mi Variable 3.5 mph - N/A   Clear
10:53 AM 52.0 °F - 34.0 °F 50% 30.14 in 10.0 mi Variable 5.8 mph - N/A   Clear
11:53 AM 55.9 °F - 34.0 °F 44% 30.10 in 10.0 mi Variable 4.6 mph - N/A   Clear
12:53 PM 60.1 °F - 34.0 °F 38% 30.06 in 10.0 mi Variable 5.8 mph - N/A   Clear
1:53 PM 63.0 °F - 34.0 °F 34% 30.04 in 10.0 mi North 9.2 mph - N/A   Clear
2:53 PM 63.0 °F - 30.9 °F 30% 30.03 in 10.0 mi North 13.8 mph 17.3 mph N/A   Clear
3:53 PM 63.0 °F - 30.0 °F 29% 30.03 in 10.0 mi North 8.1 mph 16.1 mph N/A   Clear
4:53 PM 61.0 °F - 28.0 °F 29% 30.02 in 10.0 mi North 9.2 mph - N/A   Clear
5:53 PM 55.0 °F - 27.0 °F 34% 30.03 in 10.0 mi NNW 8.1 mph - N/A   Clear
6:53 PM 52.0 °F - 26.1 °F 37% 30.04 in 10.0 mi NNW 4.6 mph - N/A   Clear
7:53 PM 52.0 °F - 25.0 °F 35% 30.04 in 10.0 mi NNW 5.8 mph - N/A   Clear
8:53 PM 54.0 °F - 24.1 °F 31% 30.06 in 10.0 mi North 5.8 mph - N/A   Clear
9:53 PM 53.1 °F - 25.0 °F 34% 30.07 in 10.0 mi NNW 6.9 mph - N/A   Clear
10:53 PM 53.1 °F - 24.1 °F 32% 30.08 in 10.0 mi North 6.9 mph - N/A   Clear
11:53 PM 52.0 °F - 21.0 °F 30% 30.08 in 10.0 mi NNW 8.1 mph - N/A   Clear